Location: Misciano
(43.5000°N, 11.9500°E)
Time: 06:33:35
(UTC+00:00)

Cosmos 1570 Rocket - Pass Details

Date: 13 August 2020
Orbit: 762 x 789 km, 74.1° (Epoch: 23 September)

Event Time Altitude Azimuth Distance (km) Brightness Sun altitude
Rises 20:33:59 0° 343° (NNW) 3,273 8.4 -21.2°
Reaches altitude 10° 20:36:26 10° 347° (NNW) 2,345 7.4 -21.5°
Maximum altitude 20:41:40 56° 66° (ENE) 930 4.3 -22.2°
Enters shadow 20:42:42 48° 107° (ESE) 1,021 4.2 -22.3°
